Humidity-temperature Sensor

Selected Measurement Type: Air Temperature

 
Air Temperature [°C]     6 entries per hour
Showing data from 12/19/2016 (00:00:00 Z) to 12/16/2016 (00:01:00 Z)
Previous Next [ Day | 3-Days | 7-Days ]
First Last
Prev [ Day | 3-Days | 7-Days ] Next
First Last

Start Time:     :
End Time:     :     
Time (in GMT) :00 :50 :40 :30 :20 :10
Previous Next [ Day | 3-Days | 7-Days ]
First Last
Prev [ Day | 3-Days | 7-Days ] Next
First Last


123 => good data
MM => data is determined as missing
-- => data not received/configured
Back to Top Back to Top
12/19/2016 00:00 to 23:10 25.04 25.11 25.09 25.08 24.98 25.04
12/18/2016 23:00 to 22:10 25.09 25.03 24.99 24.97 24.90 24.88
12/18/2016 22:00 to 21:10 24.88 24.94 24.95 24.86 24.87 24.84
12/18/2016 21:00 to 20:10 24.90 24.90 24.94 25.03 25.03 25.10
12/18/2016 20:00 to 19:10 25.14 25.10 25.01 25.01 24.93 25.00
12/18/2016 19:00 to 18:10 24.95 25.04 25.10 25.04 25.03 24.92
12/18/2016 18:00 to 17:10 24.89 25.14 25.09 25.16 25.05 24.99
12/18/2016 17:00 to 16:10 25.00 24.93 24.83 24.80 24.85 24.75
12/18/2016 16:00 to 15:10 24.77 24.72 24.65 24.82 24.82 24.83
12/18/2016 15:00 to 14:10 24.90 24.85 24.73 24.73 24.71 24.74
12/18/2016 14:00 to 13:10 24.55 24.73 24.61 24.58 24.55 24.56
12/18/2016 13:00 to 12:10 24.65 24.64 24.62 24.61 24.63 24.68
12/18/2016 12:00 to 11:10 24.63 24.62 24.69 24.69 24.61 24.67
12/18/2016 11:00 to 10:10 24.59 24.61 24.58 24.57 24.61 24.57
12/18/2016 10:00 to 9:10 24.58 24.65 24.61 24.62 24.64 24.63
12/18/2016 09:00 to 8:10 24.64 24.60 24.73 24.53 24.54 24.54
12/18/2016 08:00 to 7:10 24.55 24.58 24.63 24.58 24.54 24.59
12/18/2016 07:00 to 6:10 24.59 24.51 24.55 24.57 24.59 24.60
12/18/2016 06:00 to 5:10 24.60 24.63 24.63 24.59 24.54 24.50
12/18/2016 05:00 to 4:10 24.47 24.64 24.64 24.62 24.59 24.58
12/18/2016 04:00 to 3:10 24.55 24.62 24.65 24.64 24.65 24.69
12/18/2016 03:00 to 2:10 24.68 24.63 24.71 24.78 24.82 24.81
12/18/2016 02:00 to 1:10 24.95 24.91 24.89 24.79 24.85 24.77
12/18/2016 01:00 to 0:10 24.80 24.77 24.79 24.79 24.77 24.78
12/18/2016 00:00 to 23:10 24.79 24.69 24.76 24.75 24.84 24.83
12/17/2016 23:00 to 22:10 24.67 24.77 24.65 24.67 24.67 24.67
12/17/2016 22:00 to 21:10 24.75 24.73 24.69 24.70 24.76 24.73
12/17/2016 21:00 to 20:10 24.79 24.83 24.80 24.79 24.80 24.76
12/17/2016 20:00 to 19:10 24.68 24.73 24.68 24.55 24.45 24.61
12/17/2016 19:00 to 18:10 24.69 24.82 24.96 24.70 24.86 24.90
12/17/2016 18:00 to 17:10 24.93 25.02 24.98 24.95 25.01 25.06
12/17/2016 17:00 to 16:10 24.98 24.93 24.94 24.98 24.94 25.01
12/17/2016 16:00 to 15:10 24.81 24.69 24.57 24.51 24.44 24.45
12/17/2016 15:00 to 14:10 24.54 24.56 24.45 24.36 24.29 24.41
12/17/2016 14:00 to 13:10 24.33 24.34 24.36 24.35 24.43 24.33
12/17/2016 13:00 to 12:10 24.27 24.29 24.33 24.42 24.34 24.33
12/17/2016 12:00 to 11:10 24.41 24.34 24.26 24.23 24.26 24.18
12/17/2016 11:00 to 10:10 24.22 24.33 24.31 24.24 24.29 24.21
12/17/2016 10:00 to 9:10 24.36 24.28 24.27 24.34 24.27 24.34
12/17/2016 09:00 to 8:10 24.38 24.48 24.58 24.42 24.42 24.45
12/17/2016 08:00 to 7:10 24.50 24.53 24.53 24.51 24.60 24.50
12/17/2016 07:00 to 6:10 24.72 24.62 24.61 24.60 24.68 24.61
12/17/2016 06:00 to 5:10 24.61 24.64 24.68 24.69 24.67 24.60
12/17/2016 05:00 to 4:10 24.66 24.69 24.72 24.69 24.64 24.76
12/17/2016 04:00 to 3:10 24.75 24.65 24.66 24.72 24.73 24.71
12/17/2016 03:00 to 2:10 24.78 24.87 24.95 24.85 24.90 24.86
12/17/2016 02:00 to 1:10 24.82 24.76 24.83 24.88 24.99 24.99
12/17/2016 01:00 to 0:10 24.88 24.81 24.86 24.90 24.88 24.88
12/17/2016 00:00 to 23:10 24.87 24.94 24.82 24.80 24.80 24.88
12/16/2016 23:00 to 22:10 24.84 24.79 24.77 24.84 24.73 24.76
12/16/2016 22:00 to 21:10 24.68 24.78 24.88 24.82 24.85 24.74
12/16/2016 21:00 to 20:10 24.81 24.84 24.76 24.94 24.85 24.86
12/16/2016 20:00 to 19:10 24.85 24.84 24.85 24.91 24.89 24.96
12/16/2016 19:00 to 18:10 24.90 24.86 24.91 24.93 24.89 24.89
12/16/2016 18:00 to 17:10 24.84 24.99 24.99 25.05 25.01 25.01
12/16/2016 17:00 to 16:10 24.96 24.86 24.81 24.92 24.94 24.72
12/16/2016 16:00 to 15:10 24.51 24.66 24.43 24.40 24.33 24.38
12/16/2016 15:00 to 14:10 24.37 24.30 24.36 24.28 24.36 24.27
12/16/2016 14:00 to 13:10 24.37 24.37 24.31 24.33 24.35 24.28
12/16/2016 13:00 to 12:10 24.30 24.19 24.23 24.39 24.27 24.30
12/16/2016 12:00 to 11:10 24.34 24.31 24.30 24.29 24.33 24.37
12/16/2016 11:00 to 10:10 24.34 24.35 24.38 24.51 24.41 24.42
12/16/2016 10:00 to 9:10 24.49 24.47 24.40 24.47 24.43 24.46
12/16/2016 09:00 to 8:10 24.52 24.50 24.56 24.58 24.67 24.60
12/16/2016 08:00 to 7:10 24.67 24.70 24.63 24.67 24.69 24.67
12/16/2016 07:00 to 6:10 24.67 24.80 24.77 24.81 24.77 24.77
12/16/2016 06:00 to 5:10 24.75 24.66 24.79 24.82 24.76 24.76
12/16/2016 05:00 to 4:10 24.69 24.69 24.77 24.70 24.80 24.83
12/16/2016 04:00 to 3:10 24.76 24.86 24.85 24.89 24.89 25.02
12/16/2016 03:00 to 2:10 24.91 24.95 24.93 24.87 24.90 24.95
12/16/2016 02:00 to 1:10 24.91 24.99 24.86 24.89 24.91 24.92
12/16/2016 01:00 to 0:10 24.91 24.97 24.98 24.88 25.00 24.92